Weather History for Mt. Pocono, PA

Change the Weather History Date:

Wednesday, April 24, 2013

  Actual Average Record
Temperature  
Mean Temperature 52 °F 49 °F  
Max Temperature 66 °F 59 °F 83 °F (1960)
Min Temperature 38 °F 38 °F 17 °F (1914)
Degree Days  
Heating Degree Days 13 17  
Month to date heating degree days 479 503  
Since 1 July heating degree days 6351 6601  
Cooling Degree Days 0 0  
Month to date cooling degree days 1 0  
Year to date cooling degree days 1 0  
Growing Degree Days 2 (Base 50)    
Moisture  
Dew Point 44 °F    
Average Humidity 72    
Maximum Humidity 92    
Minimum Humidity 52    
Precipitation  
Precipitation 0.08 in 0.10 in 2.02 in (1977)
Month to date precipitation 2.16 3.33  
Year to date precipitation 9.02 12.42  
Sea Level Pressure  
Sea Level Pressure 29.95 in    
Wind  
Wind Speed 9 mph (SW)    
Max Wind Speed 33 mph    
Max Gust Speed 44 mph    
Visibility 9 miles    
Events Rain    
T = Trace of Precipitation, MM = Missing Value Source: NWS Daily Summary

Daily Weather History Graph

Daily Weather History Graph

Search for Another Location

Airport:

Trip Planner

Search our weather history database for the weather conditions in past years. The results will help you decide how hot, cold, wet, or windy it might be!

Date:

Astronomy

Apr. 24, 2013 Rise Set
Actual Time 6:08 AM EDT 7:51 PM EDT
Civil Twilight 5:39 AM EDT 8:20 PM EDT
Nautical Twilight 5:03 AM EDT 8:56 PM EDT
Astronomical Twilight 4:25 AM EDT 9:34 PM EDT
Moon 6:51 PM EDT (4/24) 5:11 AM EDT (4/24)
Length of Visible Light 14h 41m
Length of Day
13h 42m
Waxing Gibbous, 98% of the Moon is Illuminated
Apr 24
Waxing Gibbous
Apr 25
Full
May 2
Last Quarter
May 9
New
May 18
First Quarter

Hourly Weather History & Observations

Time (EDT) Temp. Windchill Dew Point Humidity Pressure Visibility Wind Dir Wind Speed Gust Speed Precip Events Conditions
12:05 AM 44.6 °F - 37.4 °F 76% 30.10 in 10.0 mi Calm Calm - N/A   Overcast
12:53 AM 43.0 °F - 37.9 °F 82% 30.11 in 8.0 mi Calm Calm - N/A   Overcast
1:37 AM 42.8 °F 41.1 °F 39.2 °F 87% 30.06 in 10.0 mi East 3.5 mph - N/A   Overcast
1:53 AM 43.0 °F - 37.9 °F 82% 30.09 in 10.0 mi Calm Calm - N/A   Overcast
2:53 AM 42.1 °F - 37.9 °F 85% 30.06 in 10.0 mi Calm Calm - N/A   Overcast
3:53 AM 42.1 °F - 37.9 °F 85% 30.06 in 10.0 mi Calm Calm - N/A   Overcast
4:39 AM 42.8 °F - 37.4 °F 81% 30.03 in 10.0 mi Calm Calm - N/A   Scattered Clouds
4:53 AM 41.0 °F - 37.0 °F 86% 30.06 in 10.0 mi Calm Calm - N/A   Clear
6:51 AM 39.2 °F 35.9 °F 37.4 °F 93% 30.03 in 10.0 mi West 4.6 mph - N/A   Partly Cloudy
6:53 AM 39.9 °F 35.8 °F 37.9 °F 93% 30.06 in 10.0 mi West 5.8 mph - N/A   Partly Cloudy
7:53 AM 43.0 °F 40.3 °F 39.0 °F 86% 30.05 in 8.0 mi West 4.6 mph - N/A   Clear
8:53 AM 48.0 °F - 39.9 °F 74% 30.03 in 10.0 mi WSW 13.8 mph - N/A   Clear
9:53 AM 50.0 °F - 42.1 °F 74% 30.02 in 10.0 mi WSW 6.9 mph - N/A   Mostly Cloudy
10:53 AM 55.9 °F - 43.0 °F 62% 29.99 in 10.0 mi WSW 10.4 mph - N/A   Mostly Cloudy
11:53 AM 59.0 °F - 44.1 °F 58% 29.96 in 10.0 mi South 11.5 mph - N/A   Clear
12:53 PM 62.1 °F - 45.0 °F 53% 29.93 in 10.0 mi SSW 13.8 mph - N/A   Clear
1:53 PM 62.1 °F - 45.0 °F 53% 29.90 in 10.0 mi SSW 8.1 mph - N/A   Clear
2:53 PM 64.9 °F - 46.9 °F 52% 29.87 in 10.0 mi South 11.5 mph - N/A   Clear
3:53 PM 64.0 °F - 46.9 °F 54% 29.86 in 10.0 mi SSW 12.7 mph - N/A   Clear
4:53 PM 64.0 °F - 48.0 °F 56% 29.84 in 10.0 mi South 13.8 mph - N/A   Clear
5:53 PM 64.0 °F - 48.0 °F 56% 29.81 in 10.0 mi SSE 13.8 mph 19.6 mph N/A   Clear
6:53 PM 62.1 °F - 50.0 °F 65% 29.84 in 10.0 mi SSW 9.2 mph 17.3 mph N/A   Mostly Cloudy
7:53 PM 61.0 °F - 51.1 °F 70% 29.84 in 10.0 mi SSW 10.4 mph 18.4 mph N/A   Overcast
8:53 PM 59.0 °F - 53.1 °F 81% 29.84 in 9.0 mi SSW 10.4 mph - 0.00 in Rain Light Rain
9:53 PM 57.9 °F - 53.1 °F 84% 29.85 in 9.0 mi SSW 11.5 mph - 0.00 in Rain Light Rain
10:53 PM 57.0 °F - 53.1 °F 87% 29.83 in 9.0 mi SSW 11.5 mph - 0.00 in   Overcast
11:16 PM 57.2 °F - 53.6 °F 88% 29.86 in 3.0 mi West 23.0 mph 33.4 mph 0.05 in Rain Heavy Rain
11:31 PM 53.6 °F - 50.0 °F 88% 29.87 in 5.0 mi WNW 16.1 mph 26.5 mph 0.08 in Rain Light Rain
11:48 PM 51.8 °F - 46.4 °F 82% 29.88 in 9.0 mi West 18.4 mph 25.3 mph 0.08 in Rain Light Rain
11:53 PM 52.0 °F - 46.9 °F 83% 29.88 in 10.0 mi West 24.2 mph 35.7 mph 0.08 in Rain Light Rain